When you browse on this site, cookies collect data to enhance your experience and personalize the content and advertising you see.
Visit our Privacy Policy to learn more. By continuing to use the site, you agree to this use of cookies and data.
  • In Österreich
  • Länderverzeichnis
  • Für 7 Tage
  • Wassertemperatur
  • Satellitenkarten
  • Wetterkarte
  • News
  • Widgets
  • user-avatar
    Anmelden

    Stündliche Wetter Ali Bajramli

    Heute, 23 März, Samstag

    Zeit Temperatur Niederschläge Wind Luftdruck Luftfeuchtigkeit
    00:00 +8°C° 0.4 mm 5 m/S 763 mmHg 77%
    01:00 +8°C° 0.7 mm 4 m/S 763 mmHg 79%
    02:00 +8°C° 0.7 mm 4 m/S 763 mmHg 81%
    03:00 +9°C° 0.7 mm 3 m/S 763 mmHg 82%
    04:00 +9°C° 0 mm 3 m/S 763 mmHg 83%
    05:00 +9°C° 0 mm 2 m/S 763 mmHg 83%
    06:00 +8°C° 0 mm 2 m/S 763 mmHg 84%
    07:00 +9°C° 0 mm 2 m/S 762 mmHg 82%
    08:00 +9°C° 0 mm 2 m/S 762 mmHg 80%
    09:00 +10°C° 0 mm 2 m/S 761 mmHg 79%
    10:00 +12°C° 0 mm 2 m/S 761 mmHg 75%
    11:00 +13°C° 0 mm 2 m/S 760 mmHg 71%
    12:00 +13°C° 0 mm 2 m/S 760 mmHg 67%
    13:00 +14°C° 0 mm 2 m/S 759 mmHg 64%
    14:00 +15°C° 0 mm 2 m/S 758 mmHg 61%
    15:00 +15°C° 0 mm 2 m/S 758 mmHg 58%
    16:00 +14°C° 0 mm 3 m/S 757 mmHg 61%
    17:00 +13°C° 0 mm 3 m/S 757 mmHg 63%
    18:00 +13°C° 0 mm 3 m/S 757 mmHg 66%
    19:00 +12°C° 0 mm 3 m/S 757 mmHg 72%
    20:00 +11°C° 0 mm 3 m/S 757 mmHg 78%
    21:00 +10°C° 0 mm 3 m/S 758 mmHg 85%
    22:00 +10°C° 0 mm 3 m/S 757 mmHg 87%
    23:00 +9°C° 0 mm 2 m/S 757 mmHg 89%

    Morgen, 24 März, Sonntag

    Zeit Temperatur Niederschläge Wind Luftdruck Luftfeuchtigkeit
    00:00 +10°C° 0 mm 1 m/S 757 mmHg 91%
    01:00 +10°C° 0 mm 1 m/S 757 mmHg 92%
    02:00 +9°C° 0 mm 1 m/S 756 mmHg 93%
    03:00 +9°C° 0 mm 1 m/S 756 mmHg 93%
    04:00 +9°C° 0 mm 1 m/S 756 mmHg 92%
    05:00 +9°C° 0 mm 1 m/S 756 mmHg 90%
    06:00 +9°C° 0 mm 1 m/S 756 mmHg 88%
    07:00 +10°C° 0 mm 1 m/S 756 mmHg 76%
    08:00 +12°C° 0 mm 1 m/S 756 mmHg 64%
    09:00 +14°C° 0 mm 1 m/S 757 mmHg 53%
    10:00 +14°C° 0 mm 3 m/S 756 mmHg 51%
    11:00 +15°C° 0 mm 5 m/S 756 mmHg 49%
    12:00 +16°C° 0 mm 7 m/S 756 mmHg 47%
    13:00 +16°C° 0 mm 7 m/S 756 mmHg 48%
    14:00 +16°C° 0 mm 8 m/S 756 mmHg 48%
    15:00 +16°C° 0 mm 9 m/S 755 mmHg 49%
    16:00 +15°C° 0 mm 9 m/S 756 mmHg 52%
    17:00 +12°C° 0 mm 9 m/S 756 mmHg 56%
    18:00 +11°C° 0 mm 9 m/S 756 mmHg 59%
    19:00 +11°C° 0 mm 9 m/S 757 mmHg 60%
    20:00 +11°C° 0 mm 9 m/S 757 mmHg 60%
    21:00 +10°C° 0 mm 8 m/S 757 mmHg 61%
    22:00 +10°C° 0 mm 8 m/S 758 mmHg 60%
    23:00 +10°C° 0 mm 8 m/S 758 mmHg 60%

    übermorgen, 25 März, Montag

    Zeit Temperatur Niederschläge Wind Luftdruck Luftfeuchtigkeit
    00:00 +10°C° 0 mm 7 m/S 758 mmHg 60%
    01:00 +9°C° 0 mm 6 m/S 758 mmHg 63%
    02:00 +9°C° 0 mm 5 m/S 758 mmHg 65%
    03:00 +10°C° 0 mm 4 m/S 758 mmHg 68%
    04:00 +8°C° 0.1 mm 4 m/S 758 mmHg 70%
    05:00 +9°C° 0.1 mm 3 m/S 758 mmHg 71%
    06:00 +9°C° 0.1 mm 3 m/S 759 mmHg 73%
    07:00 +9°C° 0.1 mm 3 m/S 759 mmHg 70%
    08:00 +10°C° 0.1 mm 3 m/S 759 mmHg 67%
    09:00 +10°C° 0.1 mm 4 m/S 760 mmHg 64%
    10:00 +10°C° 0.4 mm 4 m/S 759 mmHg 62%
    11:00 +9°C° 0.4 mm 5 m/S 759 mmHg 60%
    12:00 +9°C° 0.4 mm 6 m/S 759 mmHg 58%
    13:00 +9°C° 0.7 mm 6 m/S 759 mmHg 59%
    14:00 +9°C° 0.7 mm 7 m/S 759 mmHg 60%
    15:00 +8°C° 0.7 mm 7 m/S 758 mmHg 61%
    16:00 +8°C° 0.5 mm 7 m/S 758 mmHg 64%
    17:00 +8°C° 0.5 mm 7 m/S 759 mmHg 66%
    18:00 +8°C° 0.5 mm 6 m/S 759 mmHg 68%
    19:00 +7°C° 0.1 mm 5 m/S 759 mmHg 70%
    20:00 +7°C° 0.1 mm 4 m/S 760 mmHg 72%
    21:00 +8°C° 0.1 mm 3 m/S 760 mmHg 75%
    22:00 +8°C° 0.1 mm 3 m/S 760 mmHg 77%
    23:00 +7°C° 0.1 mm 2 m/S 760 mmHg 80%

    26 März, Dienstag

    Zeit Temperatur Niederschläge Wind Luftdruck Luftfeuchtigkeit
    00:00 +7°C° 0.1 mm 2 m/S 759 mmHg 82%
    01:00 +7°C° 0.1 mm 2 m/S 759 mmHg 83%
    02:00 +7°C° 0.1 mm 2 m/S 760 mmHg 85%
    03:00 +7°C° 0.1 mm 2 m/S 760 mmHg 86%
    04:00 +6°C° 0 mm 2 m/S 760 mmHg 86%
    05:00 +7°C° 0 mm 1 m/S 760 mmHg 87%
    06:00 +7°C° 0 mm 1 m/S 760 mmHg 88%
    07:00 +8°C° 0 mm 1 m/S 761 mmHg 79%
    08:00 +9°C° 0 mm 1 m/S 761 mmHg 70%
    09:00 +9°C° 0 mm 2 m/S 761 mmHg 61%
    10:00 +10°C° 0 mm 2 m/S 761 mmHg 54%
    11:00 +12°C° 0 mm 2 m/S 760 mmHg 48%
    12:00 +13°C° 0 mm 2 m/S 760 mmHg 41%
    13:00 +14°C° 0 mm 2 m/S 760 mmHg 41%
    14:00 +14°C° 0 mm 2 m/S 759 mmHg 41%
    15:00 +15°C° 0 mm 2 m/S 759 mmHg 40%
    16:00 +13°C° 0 mm 3 m/S 759 mmHg 44%
    17:00 +11°C° 0 mm 4 m/S 759 mmHg 48%
    18:00 +9°C° 0 mm 5 m/S 759 mmHg 51%
    19:00 +9°C° 0 mm 5 m/S 759 mmHg 53%
    20:00 +8°C° 0 mm 4 m/S 759 mmHg 55%
    21:00 +8°C° 0 mm 4 m/S 759 mmHg 57%
    22:00 +8°C° 0.1 mm 3 m/S 759 mmHg 60%
    23:00 +8°C° 0.1 mm 2 m/S 759 mmHg 62%

    27 März, Mittwoch

    Zeit Temperatur Niederschläge Wind Luftdruck Luftfeuchtigkeit
    00:00 +9°C° 0.1 mm 1 m/S 758 mmHg 64%
    01:00 +9°C° 0.1 mm 1 m/S 758 mmHg 66%
    02:00 +8°C° 0.1 mm 2 m/S 757 mmHg 68%
    03:00 +7°C° 0.1 mm 2 m/S 757 mmHg 70%
    04:00 +7°C° 0 mm 2 m/S 757 mmHg 72%
    05:00 +7°C° 0 mm 2 m/S 757 mmHg 75%
    06:00 +6°C° 0 mm 2 m/S 757 mmHg 77%
    07:00 +7°C° 0 mm 3 m/S 757 mmHg 71%
    08:00 +8°C° 0 mm 4 m/S 757 mmHg 64%
    09:00 +9°C° 0 mm 5 m/S 757 mmHg 58%
    10:00 +11°C° 0.1 mm 4 m/S 757 mmHg 58%
    11:00 +11°C° 0.1 mm 4 m/S 756 mmHg 58%
    12:00 +12°C° 0.1 mm 4 m/S 756 mmHg 58%
    13:00 +12°C° 0 mm 4 m/S 756 mmHg 56%
    14:00 +13°C° 0 mm 3 m/S 756 mmHg 54%
    15:00 +14°C° 0 mm 3 m/S 756 mmHg 52%
    16:00 +15°C° 0 mm 2 m/S 757 mmHg 55%
    17:00 +14°C° 0 mm 1 m/S 757 mmHg 58%
    18:00 +14°C° 0 mm 1 m/S 757 mmHg 61%
    19:00 +13°C° 0 mm 1 m/S 758 mmHg 64%
    20:00 +13°C° 0 mm 2 m/S 758 mmHg 68%
    21:00 +11°C° 0 mm 3 m/S 759 mmHg 71%
    22:00 +10°C° 0 mm 2 m/S 759 mmHg 74%
    23:00 +11°C° 0 mm 1 m/S 759 mmHg 76%

    28 März, Donnerstag

    Zeit Temperatur Niederschläge Wind Luftdruck Luftfeuchtigkeit
    00:00 +11°C° 0 mm 1 m/S 759 mmHg 79%
    01:00 +11°C° 0 mm 1 m/S 759 mmHg 78%
    02:00 +11°C° 0 mm 1 m/S 759 mmHg 77%
    03:00 +11°C° 0 mm 1 m/S 760 mmHg 76%
    04:00 +11°C° 0 mm 1 m/S 760 mmHg 76%
    05:00 +11°C° 0 mm 1 m/S 760 mmHg 75%
    06:00 +11°C° 0 mm 1 m/S 761 mmHg 75%
    07:00 +12°C° 0 mm 1 m/S 761 mmHg 69%
    08:00 +13°C° 0 mm 2 m/S 761 mmHg 63%
    09:00 +14°C° 0 mm 2 m/S 762 mmHg 57%
    10:00 +14°C° 0 mm 3 m/S 761 mmHg 53%
    11:00 +15°C° 0 mm 4 m/S 761 mmHg 49%
    12:00 +17°C° 0 mm 4 m/S 761 mmHg 45%
    13:00 +16°C° 0 mm 5 m/S 761 mmHg 45%
    14:00 +16°C° 0 mm 5 m/S 760 mmHg 45%
    15:00 +16°C° 0 mm 5 m/S 760 mmHg 46%
    16:00 +14°C° 0 mm 5 m/S 760 mmHg 50%
    17:00 +13°C° 0 mm 5 m/S 760 mmHg 53%
    18:00 +12°C° 0 mm 5 m/S 760 mmHg 57%
    19:00 +12°C° 0 mm 4 m/S 760 mmHg 60%
    20:00 +11°C° 0 mm 4 m/S 761 mmHg 63%
    21:00 +11°C° 0 mm 3 m/S 761 mmHg 66%
    22:00 +10°C° 0 mm 3 m/S 761 mmHg 67%
    23:00 +10°C° 0 mm 3 m/S 760 mmHg 68%
    Mehr zeigen